TimeCST,TemperatureF,Dew PointF,Humidity,Sea Level PressureIn,VisibilityMPH,Wind Direction,Wind SpeedMPH,Gust SpeedMPH,PrecipitationIn,Events,Conditions,WindDirDegrees,DateUTC
12:13 AM,12.2,10.4,92,30.18,10.0,NNE,3.5,-,N/A,,Overcast,30,2013-02-22 06:13:00
12:32 AM,12.2,10.4,92,30.17,10.0,NE,4.6,-,N/A,,Overcast,40,2013-02-22 06:32:00
12:53 AM,12.2,10.4,92,30.17,10.0,NNE,3.5,-,N/A,,Overcast,30,2013-02-22 06:53:00
1:13 AM,12.2,8.6,85,30.16,10.0,NE,5.8,-,N/A,,Overcast,40,2013-02-22 07:13:00
1:33 AM,10.4,8.6,92,30.15,10.0,NNE,4.6,-,N/A,,Overcast,30,2013-02-22 07:33:00
1:53 AM,12.2,8.6,85,30.15,10.0,NE,3.5,-,N/A,,Overcast,40,2013-02-22 07:53:00
2:13 AM,12.2,8.6,85,30.14,10.0,NE,3.5,-,N/A,,Overcast,40,2013-02-22 08:13:00
2:33 AM,12.2,8.6,85,30.14,10.0,Calm,Calm,-,N/A,,Overcast,0,2013-02-22 08:33:00
2:53 AM,12.2,8.6,85,30.13,10.0,Calm,Calm,-,N/A,,Overcast,0,2013-02-22 08:53:00
3:13 AM,12.2,8.6,85,30.11,10.0,NE,4.6,-,N/A,,Overcast,40,2013-02-22 09:13:00
3:33 AM,12.2,10.4,92,30.10,7.0,Calm,Calm,-,N/A,,Overcast,0,2013-02-22 09:33:00
3:53 AM,12.2,10.4,92,30.09,7.0,NE,3.5,-,N/A,,Overcast,40,2013-02-22 09:53:00
4:12 AM,12.2,12.2,100,30.09,7.0,NE,4.6,-,N/A,,Overcast,40,2013-02-22 10:12:00
4:33 AM,12.2,12.2,100,30.08,5.0,NNE,4.6,-,N/A,,Overcast,30,2013-02-22 10:33:00
4:53 AM,14.0,12.2,93,30.07,5.0,NNE,5.8,-,N/A,,Overcast,30,2013-02-22 10:53:00
5:13 AM,14.0,12.2,93,30.06,4.0,NNE,6.9,-,N/A,,Overcast,30,2013-02-22 11:13:00
5:33 AM,14.0,12.2,93,30.05,4.0,NNE,4.6,-,N/A,,Overcast,30,2013-02-22 11:33:00
5:52 AM,14.0,12.2,93,30.05,4.0,NNE,4.6,-,N/A,,Overcast,30,2013-02-22 11:52:00
6:13 AM,15.8,12.2,86,30.04,4.0,NNE,4.6,-,N/A,,Overcast,30,2013-02-22 12:13:00
6:32 AM,15.8,14.0,93,30.03,4.0,NE,4.6,-,N/A,,Overcast,40,2013-02-22 12:32:00
6:53 AM,15.8,14.0,93,30.03,5.0,NE,5.8,-,N/A,,Overcast,40,2013-02-22 12:53:00
7:13 AM,15.8,14.0,93,30.02,7.0,NE,5.8,-,N/A,,Overcast,40,2013-02-22 13:13:00
7:32 AM,15.8,14.0,93,30.01,7.0,NE,8.1,-,N/A,,Overcast,50,2013-02-22 13:32:00
7:53 AM,15.8,15.8,100,30.00,10.0,NE,6.9,-,N/A,,Overcast,40,2013-02-22 13:53:00
8:13 AM,17.6,15.8,93,29.99,10.0,NE,5.8,-,N/A,,Overcast,40,2013-02-22 14:13:00
8:32 AM,17.6,15.8,93,29.99,5.0,NE,6.9,-,N/A,,Overcast,40,2013-02-22 14:32:00
8:53 AM,17.6,17.6,100,29.98,2.5,NE,5.8,-,N/A,,Overcast,40,2013-02-22 14:53:00
9:13 AM,17.6,17.6,100,29.97,2.5,NE,9.2,-,N/A,,Overcast,40,2013-02-22 15:13:00
9:33 AM,19.4,17.6,93,29.97,2.5,NE,5.8,-,N/A,,Overcast,50,2013-02-22 15:33:00
9:53 AM,19.4,17.6,93,29.97,3.0,NE,6.9,-,N/A,,Overcast,40,2013-02-22 15:53:00
10:12 AM,19.4,19.4,100,29.96,3.0,NNE,4.6,-,N/A,,Overcast,30,2013-02-22 16:12:00
10:33 AM,19.4,19.4,100,29.96,2.5,NNE,5.8,-,N/A,,Overcast,20,2013-02-22 16:33:00
10:53 AM,19.4,19.4,100,29.95,1.8,NNE,5.8,-,N/A,Snow,Light Snow,20,2013-02-22 16:53:00
11:12 AM,21.2,19.4,93,29.94,2.0,NNE,8.1,-,N/A,Snow,Light Snow,20,2013-02-22 17:12:00
11:33 AM,21.2,19.4,93,29.95,3.0,NNE,5.8,-,N/A,Snow,Light Snow,30,2013-02-22 17:33:00
11:53 AM,21.2,21.2,100,29.94,2.5,NE,8.1,-,N/A,Snow,Light Snow,50,2013-02-22 17:53:00
12:13 PM,23.0,21.2,93,29.93,3.0,NE,9.2,-,N/A,Snow,Light Snow,40,2013-02-22 18:13:00
12:33 PM,23.0,21.2,93,29.92,2.5,North,6.9,-,N/A,Snow,Light Snow,10,2013-02-22 18:33:00
12:53 PM,21.2,21.2,100,29.92,3.0,NNE,6.9,-,N/A,Snow,Light Snow,20,2013-02-22 18:53:00
1:13 PM,23.0,21.2,93,29.91,4.0,NNE,6.9,-,N/A,Snow,Light Snow,30,2013-02-22 19:13:00
1:33 PM,23.0,21.2,93,29.90,4.0,NNE,8.1,-,N/A,Snow,Light Snow,30,2013-02-22 19:33:00
1:53 PM,24.8,21.2,86,29.89,5.0,NNE,8.1,-,N/A,Snow,Light Snow,30,2013-02-22 19:53:00
2:13 PM,24.8,23.0,93,29.89,10.0,NNE,5.8,-,N/A,,Overcast,20,2013-02-22 20:13:00
2:32 PM,24.8,23.0,93,29.89,10.0,NE,5.8,-,N/A,,Overcast,50,2013-02-22 20:32:00
2:53 PM,26.6,23.0,86,29.88,10.0,NE,9.2,-,N/A,,Overcast,50,2013-02-22 20:53:00
3:13 PM,26.6,23.0,86,29.87,10.0,ENE,11.5,-,N/A,,Overcast,60,2013-02-22 21:13:00
3:32 PM,26.6,23.0,86,29.87,10.0,ENE,6.9,-,N/A,,Overcast,70,2013-02-22 21:32:00
3:53 PM,26.6,23.0,86,29.87,10.0,ENE,9.2,-,N/A,,Overcast,70,2013-02-22 21:53:00
4:13 PM,26.6,21.2,80,29.87,10.0,ENE,5.8,-,N/A,,Overcast,70,2013-02-22 22:13:00
4:32 PM,26.6,23.0,86,29.87,10.0,NNE,5.8,-,N/A,,Overcast,30,2013-02-22 22:32:00
4:53 PM,24.8,21.2,86,29.87,10.0,NNE,6.9,-,N/A,,Overcast,30,2013-02-22 22:53:00
5:13 PM,24.8,21.2,86,29.87,7.0,NE,6.9,-,N/A,Snow,Light Snow,40,2013-02-22 23:13:00
5:32 PM,24.8,19.4,80,29.87,10.0,NE,8.1,-,N/A,,Overcast,50,2013-02-22 23:32:00
5:53 PM,24.8,19.4,80,29.87,10.0,NE,6.9,-,N/A,,Overcast,50,2013-02-22 23:53:00
6:13 PM,24.8,19.4,80,29.87,10.0,NE,5.8,-,N/A,,Overcast,40,2013-02-23 00:13:00
6:33 PM,23.0,19.4,86,29.87,10.0,ENE,3.5,-,N/A,,Mostly Cloudy,60,2013-02-23 00:33:00
6:53 PM,23.0,19.4,86,29.87,10.0,NE,3.5,-,N/A,,Mostly Cloudy,50,2013-02-23 00:53:00
7:13 PM,21.2,19.4,93,29.86,10.0,NE,4.6,-,N/A,,Mostly Cloudy,40,2013-02-23 01:13:00
7:33 PM,21.2,19.4,93,29.86,7.0,Calm,Calm,-,N/A,Snow,Light Snow,0,2013-02-23 01:33:00
7:53 PM,21.2,19.4,93,29.85,5.0,Calm,Calm,-,N/A,Snow,Light Snow,0,2013-02-23 01:53:00
8:13 PM,21.2,19.4,93,29.86,5.0,Calm,Calm,-,N/A,Snow,Light Snow,0,2013-02-23 02:13:00
8:33 PM,21.2,19.4,93,29.86,5.0,Calm,Calm,-,N/A,Snow,Light Snow,0,2013-02-23 02:33:00
8:53 PM,21.2,19.4,93,29.85,3.0,Calm,Calm,-,N/A,Snow,Light Snow,0,2013-02-23 02:53:00
9:13 PM,21.2,19.4,93,29.85,5.0,Calm,Calm,-,N/A,Snow,Light Snow,0,2013-02-23 03:13:00
9:33 PM,21.2,19.4,93,29.84,10.0,Calm,Calm,-,N/A,,Overcast,0,2013-02-23 03:33:00
9:53 PM,21.2,19.4,93,29.83,10.0,Calm,Calm,-,N/A,,Overcast,0,2013-02-23 03:53:00
10:12 PM,21.2,19.4,93,29.83,7.0,Calm,Calm,-,N/A,Snow,Light Snow,0,2013-02-23 04:12:00
10:33 PM,21.2,19.4,93,29.83,10.0,Calm,Calm,-,N/A,Snow,Light Snow,0,2013-02-23 04:33:00
10:53 PM,21.2,19.4,93,29.82,7.0,Calm,Calm,-,N/A,Snow,Light Snow,0,2013-02-23 04:53:00
11:12 PM,21.2,17.6,86,29.82,10.0,Calm,Calm,-,N/A,,Overcast,0,2013-02-23 05:12:00
11:33 PM,21.2,19.4,93,29.82,10.0,Calm,Calm,-,N/A,,Overcast,0,2013-02-23 05:33:00
11:53 PM,19.4,19.4,100,29.81,10.0,Calm,Calm,-,N/A,,Overcast,0,2013-02-23 05:53:00